TimeCDT,TemperatureF,Dew PointF,Humidity,Sea Level PressureIn,VisibilityMPH,Wind Direction,Wind SpeedMPH,Gust SpeedMPH,PrecipitationIn,Events,Conditions,WindDirDegrees,DateUTC
12:15 AM,69.8,66.2,88,30.04,10.0,Calm,Calm,-,N/A,,Clear,0,2013-09-07 05:15:00
12:35 AM,69.8,66.2,88,30.04,10.0,Calm,Calm,-,N/A,,Clear,0,2013-09-07 05:35:00
12:55 AM,69.8,66.2,88,30.04,10.0,Calm,Calm,-,N/A,,Clear,0,2013-09-07 05:55:00
1:15 AM,69.8,64.4,83,30.04,10.0,Calm,Calm,-,N/A,,Clear,0,2013-09-07 06:15:00
1:35 AM,69.8,64.4,83,30.04,10.0,Calm,Calm,-,N/A,,Clear,0,2013-09-07 06:35:00
1:55 AM,69.8,64.4,83,30.03,10.0,Calm,Calm,-,N/A,,Clear,0,2013-09-07 06:55:00
2:15 AM,68.0,64.4,88,30.03,10.0,Calm,Calm,-,N/A,,Clear,0,2013-09-07 07:15:00
2:35 AM,68.0,64.4,88,30.03,10.0,Calm,Calm,-,N/A,,Clear,0,2013-09-07 07:35:00
2:55 AM,68.0,64.4,88,30.03,10.0,Calm,Calm,-,N/A,,Clear,0,2013-09-07 07:55:00
3:15 AM,68.0,64.4,88,30.03,10.0,Calm,Calm,-,N/A,,Clear,0,2013-09-07 08:15:00
3:35 AM,68.0,62.6,83,30.03,10.0,Calm,Calm,-,N/A,,Clear,0,2013-09-07 08:35:00
3:55 AM,68.0,64.4,88,30.03,10.0,Calm,Calm,-,N/A,,Clear,0,2013-09-07 08:55:00
4:15 AM,68.0,62.6,83,30.03,10.0,Calm,Calm,-,N/A,,Clear,0,2013-09-07 09:15:00
4:35 AM,68.0,64.4,88,30.04,10.0,Calm,Calm,-,N/A,,Clear,0,2013-09-07 09:35:00
4:55 AM,68.0,64.4,88,30.04,10.0,Calm,Calm,-,N/A,,Clear,0,2013-09-07 09:55:00
5:15 AM,66.2,66.2,100,30.04,10.0,Calm,Calm,-,N/A,,Clear,0,2013-09-07 10:15:00
5:35 AM,68.0,68.0,100,30.04,10.0,Calm,Calm,-,N/A,,Clear,0,2013-09-07 10:35:00
5:55 AM,66.2,66.2,100,30.04,10.0,Calm,Calm,-,N/A,,Clear,0,2013-09-07 10:55:00
6:15 AM,66.2,66.2,100,30.04,10.0,Calm,Calm,-,N/A,,Clear,0,2013-09-07 11:15:00
6:35 AM,66.2,66.2,100,30.04,10.0,Calm,Calm,-,N/A,,Clear,0,2013-09-07 11:35:00
6:55 AM,66.2,66.2,100,30.04,10.0,Calm,Calm,-,N/A,,Clear,0,2013-09-07 11:55:00
7:15 AM,66.2,66.2,100,30.05,10.0,Calm,Calm,-,N/A,,Clear,0,2013-09-07 12:15:00
7:35 AM,68.0,68.0,100,30.05,10.0,Calm,Calm,-,N/A,,Clear,0,2013-09-07 12:35:00
7:55 AM,68.0,68.0,100,30.05,10.0,Calm,Calm,-,N/A,,Clear,0,2013-09-07 12:55:00
8:15 AM,69.8,69.8,100,30.05,10.0,Calm,Calm,-,N/A,,Clear,0,2013-09-07 13:15:00
8:35 AM,71.6,68.0,88,30.05,10.0,Calm,Calm,-,N/A,,Clear,0,2013-09-07 13:35:00
8:55 AM,73.4,68.0,83,30.05,10.0,Calm,Calm,-,N/A,,Clear,0,2013-09-07 13:55:00
9:15 AM,77.0,68.0,74,30.05,10.0,Calm,Calm,-,N/A,,Clear,0,2013-09-07 14:15:00
9:35 AM,78.8,68.0,69,30.05,10.0,Calm,Calm,-,N/A,,Clear,0,2013-09-07 14:35:00
9:55 AM,82.4,64.4,54,30.06,10.0,South,6.9,-,N/A,,Clear,190,2013-09-07 14:55:00
10:15 AM,86.0,64.4,48,30.06,10.0,SSW,5.8,-,N/A,,Clear,200,2013-09-07 15:15:00
10:35 AM,86.0,64.4,48,30.06,10.0,South,5.8,-,N/A,,Clear,180,2013-09-07 15:35:00
10:55 AM,86.0,64.4,48,30.07,10.0,South,6.9,-,N/A,,Clear,180,2013-09-07 15:55:00
11:15 AM,87.8,64.4,46,30.07,10.0,South,6.9,-,N/A,,Clear,190,2013-09-07 16:15:00
11:35 AM,87.8,64.4,46,30.06,10.0,SSW,6.9,-,N/A,,Clear,200,2013-09-07 16:35:00
11:55 AM,89.6,64.4,43,30.06,10.0,South,8.1,-,N/A,,Clear,190,2013-09-07 16:55:00
12:15 PM,91.4,64.4,41,30.06,10.0,SSW,6.9,-,N/A,,Clear,210,2013-09-07 17:15:00
12:35 PM,91.4,64.4,41,30.05,10.0,SSW,8.1,-,N/A,,Clear,210,2013-09-07 17:35:00
12:55 PM,91.4,64.4,41,30.05,10.0,SW,5.8,-,N/A,,Clear,230,2013-09-07 17:55:00
1:15 PM,91.4,64.4,41,30.04,10.0,SW,4.6,-,N/A,,Clear,220,2013-09-07 18:15:00
1:35 PM,93.2,64.4,38,30.03,10.0,SW,6.9,-,N/A,,Clear,230,2013-09-07 18:35:00
1:55 PM,93.2,62.6,36,30.03,10.0,Calm,Calm,-,N/A,,Clear,0,2013-09-07 18:55:00
2:15 PM,95.0,64.4,36,30.02,10.0,SW,8.1,-,N/A,,Clear,220,2013-09-07 19:15:00
2:35 PM,95.0,64.4,36,30.00,10.0,SW,3.5,-,N/A,,Clear,230,2013-09-07 19:35:00
2:55 PM,95.0,64.4,36,30.00,10.0,WSW,4.6,-,N/A,,Clear,240,2013-09-07 19:55:00
3:15 PM,95.0,64.4,36,29.99,10.0,SSW,4.6,-,N/A,,Clear,210,2013-09-07 20:15:00
3:35 PM,95.0,62.6,34,29.98,10.0,Calm,Calm,-,N/A,,Clear,0,2013-09-07 20:35:00
3:55 PM,95.0,62.6,34,29.98,10.0,Calm,Calm,-,N/A,,Clear,0,2013-09-07 20:55:00
4:15 PM,95.0,64.4,36,29.98,10.0,NW,5.8,-,N/A,,Clear,310,2013-09-07 21:15:00
4:35 PM,95.0,64.4,36,29.97,10.0,WNW,3.5,-,N/A,,Clear,300,2013-09-07 21:35:00
4:55 PM,95.0,64.4,36,29.96,10.0,Calm,Calm,-,N/A,,Clear,0,2013-09-07 21:55:00
5:15 PM,95.0,64.4,36,29.96,10.0,Calm,Calm,-,N/A,,Clear,0,2013-09-07 22:15:00
5:35 PM,95.0,66.2,39,29.96,10.0,Calm,Calm,-,N/A,,Clear,0,2013-09-07 22:35:00
5:55 PM,95.0,64.4,36,29.96,10.0,Calm,Calm,-,N/A,,Clear,0,2013-09-07 22:55:00
6:15 PM,93.2,66.2,41,29.95,10.0,Calm,Calm,-,N/A,,Clear,0,2013-09-07 23:15:00
6:35 PM,91.4,68.0,46,29.95,10.0,Calm,Calm,-,N/A,,Clear,0,2013-09-07 23:35:00
6:55 PM,89.6,69.8,52,29.95,10.0,Calm,Calm,-,N/A,,Clear,0,2013-09-07 23:55:00
7:15 PM,87.8,69.8,55,29.96,10.0,Calm,Calm,-,N/A,,Clear,0,2013-09-08 00:15:00
7:35 PM,86.0,69.8,58,29.95,10.0,Calm,Calm,-,N/A,,Clear,0,2013-09-08 00:35:00
7:55 PM,84.2,69.8,62,29.96,10.0,Calm,Calm,-,N/A,,Clear,0,2013-09-08 00:55:00
8:15 PM,82.4,71.6,70,29.96,10.0,Calm,Calm,-,N/A,,Clear,0,2013-09-08 01:15:00
8:35 PM,80.6,71.6,74,29.96,10.0,Calm,Calm,-,N/A,,Clear,0,2013-09-08 01:35:00
8:55 PM,80.6,71.6,74,29.96,10.0,Calm,Calm,-,N/A,,Clear,0,2013-09-08 01:55:00
9:15 PM,78.8,71.6,78,29.97,7.0,Calm,Calm,-,N/A,,Clear,0,2013-09-08 02:15:00
9:35 PM,77.0,71.6,83,29.98,7.0,Calm,Calm,-,N/A,,Clear,0,2013-09-08 02:35:00
9:55 PM,77.0,71.6,83,29.98,10.0,Calm,Calm,-,N/A,,Clear,0,2013-09-08 02:55:00
10:15 PM,75.2,71.6,89,29.98,10.0,Calm,Calm,-,N/A,,Clear,0,2013-09-08 03:15:00
10:35 PM,75.2,71.6,89,29.98,10.0,Calm,Calm,-,N/A,,Clear,0,2013-09-08 03:35:00
10:55 PM,75.2,71.6,89,29.98,10.0,Calm,Calm,-,N/A,,Clear,0,2013-09-08 03:55:00
11:15 PM,73.4,71.6,94,29.98,10.0,Calm,Calm,-,N/A,,Clear,0,2013-09-08 04:15:00
11:35 PM,73.4,69.8,88,29.98,10.0,Calm,Calm,-,N/A,,Clear,0,2013-09-08 04:35:00
11:55 PM,73.4,71.6,94,29.98,10.0,Calm,Calm,-,N/A,,Clear,0,2013-09-08 04:55:00